Regional Weather Roundup
Issued by NWS

Home | Current Version | Previous Version | Text Only | Print | Product List | Glossary Off
Versions: 1 2 3 4 5 6 7 8 9 10 11 12 13 14 15 16 17 18 19 20 21 22 23 24 25 26 27 28 29 30 31 32 33 34 35 36 37 38 39 40 41 42 43 44 45 46 47 48 49 50

000
ASUS43 KLSX 031910
RWRMO

WEATHER SUMMARY FOR MISSOURI
NATIONAL WEATHER SERVICE SPRINGFIELD MO
200 PM CDT TUE MAY 03 2016

NOTE: "FAIR" INDICATES FEW OR NO CLOUDS BELOW 12,000 FEET WITH NO
       SIGNIFICANT WEATHER AND/OR OBSTRUCTIONS TO VISIBILITY.
       CURRENT SKY AND/OR WEATHER CONDITIONS ARE NOT AVAILABLE FOR
       CHILLICOTHE AND FARMINGTON.

MOZ001>031-035>038-043-044-053-054-032000-
...NORTHERN AND WESTERN MISSOURI...

CITY           SKY/WX    TMP DP  RH WIND       PRES   REMARKS
KANSAS CTY INT PTSUNNY   66  41  40 W8        30.04F
KANSAS C DTWN  MOSUNNY   68  40  35 NW7       30.03F
LEE`S SUMMIT   PTSUNNY   64  39  39 CALM      30.04F
ST JOSEPH      PTSUNNY   67  41  38 W9        30.03F
CHILLICOTHE      N/A     70  46  42 VRB6      30.02F
KIRKSVILLE     MOSUNNY   67  40  37 W10       30.00F

$$
MOZ066>068-077>081-088>096-101>105-032000-
...SOUTHWEST MISSOURI...

CITY           SKY/WX    TMP DP  RH WIND       PRES   REMARKS
SPRINGFIELD    MOSUNNY   64  40  41 N15       30.04F
JOPLIN         SUNNY     65  43  44 N9        30.07F
BRANSON        PTSUNNY   63  39  42 N9        30.06F

$$
MOZ032>034-039>042-045>050-055>058-069>072-032000-
...CENTRAL MISSOURI...

CITY           SKY/WX    TMP DP  RH WIND       PRES   REMARKS
COLUMBIA       PTSUNNY   62  45  53 NW9       30.02F
JEFFERSON CITY MOSUNNY   63  43  48 W12       30.02F
ROLLA          PTSUNNY   61  46  57 NW6       30.01F
SEDALIA        CLOUDY    65  42  43 N8        30.05F
WHITEMAN AFB   MOSUNNY   65  42  43 N10       30.03F
WARRENSBURG    MOSUNNY   64  37  36 W6        30.04F
OSAGE BEACH    PTSUNNY   61  37  41 NW6       30.04F

$$
MOZ051-052-059>065-032000-
...EAST CENTRAL MISSOURI...

CITY           SKY/WX    TMP DP  RH WIND       PRES   REMARKS
ST LOUIS INTL  CLOUDY    65  39  38 N8        30.00F
SPIRIT OF STL  CLOUDY    64  43  46 N7        30.00F
ST CHARLES     CLOUDY    61  45  55 NW5       30.00F

$$
MOZ072>076-082>087-097>100-106>115-032000-
...SOUTH CENTRAL AND SOUTHEAST MISSOURI...

CITY           SKY/WX    TMP DP  RH WIND       PRES   REMARKS
CAPE GIRARDEAU CLOUDY    61  46  57 NE6       30.00F
FARMINGTON     PTSUNNY   60  44  55 NW7       30.01F
POPLAR BLUFF   CLOUDY    64  47  53 CALM      30.00F
WEST PLAINS    PTSUNNY   63  41  44 N9        30.03F

$$




USA.gov is the U.S. government's official web portal to all federal, state and local government web resources and services.